FW5676 Weather Reports


Display with metric or nautical units.
time (UTC)temp
F
wind
direction
speed
MPH
gust
MPH
rain 1hr
in
rain 24hr
in
rain mn
in
humidity
%
barometer
mb
20191114162959 49 59 4.0 7.0 0.00 0.11 0.11 88 1012.5
20191114160955 50 55 6.0 8.0 0.00 0.11 0.11 88 1012.4
20191114155956 50 51 6.0 7.0 0.00 0.11 0.11 87 1012.2
20191114154456 51 45 4.0 6.0 0.00 0.11 0.11 86 1012.5
20191114153956 51 45 2.0 5.0 0.00 0.11 0.11 85 1012.4
20191114153455 51 23 1.0 2.0 0.00 0.11 0.11 86 1012.4
20191114152456 52 36 1.0 2.0 0.00 0.11 0.11 85 1012.2
20191114151459 52 45 2.0 3.0 0.00 0.11 0.11 85 1012.1
20191114150455 53 64 1.0 3.0 0.00 0.11 0.11 84 1012.1
20191114145956 53 46 2.0 3.0 0.00 0.11 0.11 83 1012.0
20191114144955 53 55 0.0 2.0 0.00 0.11 0.11 83 1012.1
20191114143455 54 344 0.0 0.0 0.00 0.11 0.11 83 1011.9
20191114143000 54 329 0.0 0.0 0.00 0.11 0.11 84 1011.9
20191114141456 54 125 0.0 0.0 0.00 0.11 0.11 84 1011.9
20191114140956 54 268 0.0 0.0 0.00 0.11 0.11 85 1011.9
20191114140456 53 286 0.0 1.0 0.00 0.11 0.11 85 1012.0
20191114135956 53 273 0.0 2.0 0.00 0.11 0.11 86 1012.0
20191114135456 53 342 0.0 1.0 0.00 0.11 0.11 86 1012.1
20191114133956 53 147 0.0 0.0 0.00 0.11 0.11 86 1012.0
20191114133455 53 75 0.0 0.0 0.00 0.11 0.11 87 1012.1
20191114132956 53 231 0.0 1.0 0.00 0.11 0.11 87 1012.1
20191114132456 52 267 0.0 0.0 0.00 0.11 0.11 87 1012.1
20191114131456 52 297 0.0 0.0 0.00 0.11 0.11 87 1012.1
20191114130956 52 306 0.0 0.0 0.00 0.11 0.11 87 1012.1
20191114130456 52 222 0.0 2.0 0.00 0.11 0.11 87 1012.1
20191114125956 52 224 1.0 6.0 0.00 0.11 0.11 87 1012.1
20191114124455 52 154 0.0 0.0 0.00 0.11 0.11 87 1012.0
20191114123956 52 180 0.0 0.0 0.00 0.11 0.11 87 1012.1
20191114123455 52 180 0.0 0.0 0.00 0.11 0.11 87 1012.2
20191114122956 52 202 0.0 0.0 0.00 0.11 0.11 87 1012.2
20191114122456 52 257 1.0 5.0 0.00 0.11 0.11 86 1012.3
20191114121956 52 261 1.0 5.0 0.00 0.11 0.11 86 1012.2
20191114121456 52 242 0.0 3.0 0.00 0.11 0.11 86 1012.2
20191114120956 52 280 0.0 2.0 0.00 0.11 0.11 86 1012.2
20191114120456 52 232 0.0 0.0 0.00 0.11 0.11 86 1012.3
20191114115955 52 240 0.0 0.0 0.00 0.13 0.11 86 1012.3
20191114114956 52 68 0.0 0.0 0.00 0.13 0.11 87 1012.2
20191114114456 52 135 0.0 0.0 0.00 0.13 0.11 87 1012.3
20191114113956 52 116 0.0 0.0 0.00 0.13 0.11 87 1012.2
20191114112956 51 207 0.0 1.0 0.00 0.13 0.11 86 1012.1
20191114112456 52 238 1.0 2.0 0.00 0.13 0.11 86 1012.2
20191114111956 52 215 0.0 2.0 0.00 0.13 0.11 87 1012.2
20191114111456 51 282 0.0 1.0 0.00 0.13 0.11 87 1012.1
20191114110956 51 292 0.0 0.0 0.00 0.13 0.11 87 1012.0
20191114110456 51 20 0.0 1.0 0.00 0.13 0.11 87 1011.9
20191114104955 51 22 1.0 2.0 0.02 0.13 0.11 87 1011.9
20191114103956 51 354 1.0 2.0 0.02 0.13 0.11 87 1011.8
20191114103456 51 340 0.0 0.0 0.02 0.13 0.11 88 1012.0
20191114102956 51 90 0.0 0.0 0.02 0.13 0.11 88 1012.0
20191114102500 50 69 0.0 0.0 0.02 0.13 0.11 88 1012.1
20191114101956 50 90 0.0 1.0 0.02 0.13 0.11 88 1012.0
20191114101455 50 8 0.0 0.0 0.02 0.13 0.11 88 1011.8
20191114100956 50 97 0.0 0.0 0.02 0.13 0.11 88 1011.9
20191114095956 50 215 0.0 0.0 0.04 0.13 0.11 88 1012.0
20191114095456 50 183 0.0 1.0 0.04 0.13 0.11 88 1012.3
20191114094956 50 189 0.0 0.0 0.02 0.11 0.09 88 1012.3
20191114094456 50 22 0.0 0.0 0.02 0.13 0.09 88 1012.3
20191114093957 50 16 0.0 0.0 0.04 0.13 0.09 88 1012.2
20191114091956 49 196 0.0 0.0 0.04 0.13 0.09 88 1012.8
20191114091456 49 292 0.0 0.0 0.07 0.13 0.09 88 1012.9
20191114090956 49 328 0.0 0.0 0.07 0.13 0.09 87 1012.9
20191114090456 49 281 0.0 0.0 0.04 0.11 0.07 87 1012.9
20191114085456 49 208 0.0 1.0 0.04 0.11 0.07 87 1013.0
20191114084957 49 240 0.0 0.0 0.04 0.11 0.07 87 1013.1
20191114084457 50 272 0.0 1.0 0.07 0.11 0.07 87 1013.1
20191114083956 50 272 0.0 1.0 0.04 0.09 0.04 88 1013.1
20191114083456 50 236 0.0 0.0 0.04 0.09 0.04 87 1013.2
20191114082459 49 35 0.0 1.0 0.04 0.09 0.04 87 1013.3
20191114081956 49 357 0.0 1.0 0.04 0.09 0.04 87 1013.3
20191114081456 49 354 0.0 0.0 0.02 0.07 0.02 87 1013.3
20191114080956 49 58 0.0 1.0 0.02 0.07 0.02 87 1013.3
20191114080456 48 96 1.0 3.0 0.02 0.07 0.02 87 1013.4
20191114075956 48 68 0.0 0.0 0.02 0.07 0.02 87 1013.3
20191114075456 48 38 0.0 0.0 0.02 0.07 0.02 87 1013.4
20191114074956 48 71 0.0 1.0 0.02 0.07 0.02 87 1013.3
20191114074458 48 122 0.0 1.0 0.00 0.04 0.00 87 1013.4
20191114073456 48 141 0.0 0.0 0.00 0.04 0.00 87 1013.3
20191114072956 48 202 0.0 1.0 0.00 0.04 0.00 86 1013.4
20191114071957 48 186 0.0 2.0 0.00 0.04 0.00 86 1013.3
20191114071456 49 194 0.0 2.0 0.00 0.04 0.00 86 1013.2
20191114070957 48 270 0.0 1.0 0.00 0.04 0.00 86 1013.1
20191114065956 48 43 2.0 5.0 0.00 0.04 0.00 87 1012.8
20191114065457 48 39 1.0 3.0 0.00 0.04 0.00 87 1012.8
20191114064956 48 43 0.0 3.0 0.00 0.04 0.00 87 1012.7
20191114064456 48 47 3.0 6.0 0.00 0.04 0.00 87 1012.6
20191114063457 48 25 7.0 10.0 0.00 0.04 0.00 87 1012.5
20191114061956 47 36 4.0 8.0 0.00 0.04 0.00 88 1012.6
20191114061457 47 47 3.0 6.0 0.00 0.04 0.00 88 1012.6
20191114060956 47 47 5.0 7.0 0.00 0.04 0.00 88 1012.5
20191114060457 47 42 3.0 5.0 0.00 0.04 0.00 88 1012.6
20191114055956 46 58 2.0 3.0 0.00 0.04 0.00 88 1012.7
20191114054956 46 90 1.0 2.0 0.00 0.04 0.00 87 1012.5
20191114053957 46 317 0.0 3.0 0.00 0.04 0.00 87 1012.7
20191114051956 47 301 1.0 3.0 0.00 0.04 0.00 87 1012.2
20191114051458 47 11 2.0 3.0 0.00 0.04 0.00 87 1012.0
20191114050457 47 188 0.0 1.0 0.00 0.04 0.00 87 1012.4
20191114045456 47 206 0.0 0.0 0.00 0.04 0.00 87 1012.5
20191114045000 47 277 2.0 3.0 0.00 0.04 0.00 87 1012.5
20191114044456 47 90 1.0 2.0 0.00 0.04 0.00 87 1012.4
20191114043956 47 321 1.0 2.0 0.00 0.04 0.00 86 1012.4
20191114043500 46 242 0.0 1.0 0.00 0.04 0.00 86 1012.6
20191114042959 46 192 1.0 2.0 0.00 0.04 0.00 86 1012.6
20191114041457 47 154 0.0 0.0 0.00 0.04 0.00 86 1012.4
20191114040956 47 4 0.0 0.0 0.00 0.04 0.00 86 1012.3
20191114040456 47 174 0.0 1.0 0.00 0.04 0.00 86 1012.3
20191114035956 47 205 0.0 1.0 0.00 0.04 0.00 86 1012.4
20191114035456 47 271 0.0 0.0 0.00 0.04 0.00 86 1012.3
20191114033956 47 312 0.0 0.0 0.00 0.04 0.00 86 1012.1
20191114033456 47 180 0.0 0.0 0.00 0.04 0.00 86 1012.1
20191114032957 47 215 0.0 0.0 0.00 0.04 0.00 86 1012.0
20191114032456 47 107 0.0 0.0 0.00 0.04 0.00 86 1011.9
20191114031957 47 295 0.0 0.0 0.00 0.04 0.00 86 1012.0
20191114031457 47 306 0.0 0.0 0.00 0.04 0.00 86 1011.9
20191114030957 47 292 0.0 0.0 0.00 0.04 0.00 86 1011.9
20191114030457 47 292 0.0 0.0 0.00 0.04 0.00 86 1011.9
20191114030000 47 45 0.0 0.0 0.00 0.04 0.00 86 1011.9
20191114024956 47 38 0.0 0.0 0.00 0.04 0.00 86 1012.0
20191114024459 47 58 0.0 0.0 0.00 0.04 0.00 86 1011.9
20191114023457 47 93 0.0 0.0 0.00 0.04 0.00 86 1012.0
20191114022457 46 33 2.0 3.0 0.00 0.04 0.00 86 1011.9
20191114021957 46 45 2.0 5.0 0.00 0.04 0.00 86 1012.1
20191114020957 46 48 2.0 5.0 0.00 0.04 0.00 86 1012.4
20191114020456 46 40 4.0 5.0 0.00 0.04 0.00 86 1012.5
20191114015957 46 25 3.0 3.0 0.00 0.04 0.00 86 1012.5
20191114015457 46 42 2.0 3.0 0.00 0.04 0.00 86 1012.6
20191114013957 46 45 1.0 1.0 0.00 0.04 0.00 86 1012.6
20191114012956 46 229 0.0 0.0 0.00 0.04 0.00 86 1012.5
20191114012456 46 215 0.0 0.0 0.00 0.04 0.00 86 1012.6
20191114011501 47 180 0.0 0.0 0.00 0.04 0.00 86 1012.5
20191114010957 47 270 0.0 0.0 0.00 0.04 0.00 86 1012.5
20191114005957 46 340 0.0 0.0 0.00 0.04 0.00 86 1012.5
20191114005457 46 30 0.0 0.0 0.00 0.04 0.00 86 1012.4
20191114004957 46 76 0.0 3.0 0.00 0.04 0.00 85 1012.5
20191114003457 47 72 0.0 1.0 0.00 0.04 0.00 85 1012.8
20191114002957 47 202 0.0 1.0 0.00 0.04 0.00 85 1012.8
20191114002457 47 180 0.0 1.0 0.00 0.04 0.00 85 1012.8
20191114001957 47 63 0.0 0.0 0.00 0.04 0.00 85 1012.6
20191114001456 47 27 0.0 1.0 0.00 0.04 0.00 85 1012.6
20191114000958 47 0 0.0 0.0 0.00 0.04 0.00 85 1012.7
20191114000500 47 25 0.0 0.0 0.00 0.04 0.00 84 1012.6
20191113235956 47 315 0.0 0.0 0.00 0.04 0.00 84 1012.6
20191113235456 48 0 0.0 0.0 0.00 0.04 0.00 84 1012.5
20191113234457 48 197 0.0 0.0 0.00 0.04 0.00 84 1012.6
20191113233957 48 160 0.0 0.0 0.00 0.04 0.00 84 1012.9
20191113232957 48 60 3.0 6.0 0.00 0.04 0.00 84 1012.7
20191113232457 47 36 4.0 7.0 0.00 0.04 0.00 84 1012.7
20191113231956 48 35 3.0 3.0 0.00 0.04 0.00 84 1012.8
20191113231500 48 19 1.0 2.0 0.00 0.04 0.00 84 1012.7
20191113230957 48 356 0.0 0.0 0.00 0.04 0.00 84 1012.7
20191113230457 48 45 0.0 0.0 0.00 0.04 0.00 84 1012.9
20191113225457 48 67 1.0 3.0 0.00 0.04 0.00 83 1012.8
20191113224458 48 13 0.0 1.0 0.00 0.04 0.00 83 1012.8
20191113223956 49 37 1.0 2.0 0.00 0.04 0.00 83 1012.8
20191113223458 49 33 0.0 1.0 0.00 0.04 0.00 83 1012.7
20191113222958 48 26 2.0 6.0 0.00 0.04 0.00 83 1012.6
20191113222457 49 45 5.0 8.0 0.00 0.04 0.00 82 1012.5
20191113221957 49 47 7.0 10.0 0.00 0.04 0.00 82 1012.5
20191113221456 49 50 6.0 10.0 0.00 0.04 0.00 81 1012.5
20191113220958 49 37 8.0 10.0 0.00 0.04 0.00 81 1012.5
20191113220457 49 45 8.0 12.0 0.00 0.04 0.00 81 1012.6
20191113215957 49 46 7.0 9.0 0.00 0.04 0.00 81 1012.6
20191113215457 49 36 6.0 9.0 0.00 0.04 0.04 82 1012.3
20191113214456 49 61 5.0 6.0 0.00 0.04 0.04 81 1012.5
20191113213957 50 48 7.0 12.0 0.00 0.04 0.04 80 1012.4
20191113213457 50 38 9.0 13.0 0.00 0.04 0.04 80 1012.4
20191113212958 50 42 9.0 12.0 0.00 0.04 0.04 81 1012.4
20191113211957 50 42 10.0 13.0 0.00 0.04 0.04 82 1012.6
20191113211456 49 47 10.0 14.0 0.00 0.04 0.04 82 1012.5
20191113210957 49 40 12.0 14.0 0.00 0.04 0.04 82 1012.5
20191113210457 49 45 11.0 14.0 0.00 0.04 0.04 82 1012.6
20191113205957 50 45 10.0 16.0 0.00 0.04 0.04 82 1012.6
20191113205457 50 35 10.0 14.0 0.00 0.04 0.04 82 1012.7
20191113204457 50 37 10.0 12.0 0.00 0.04 0.04 82 1012.9
20191113203958 50 43 10.0 12.0 0.00 0.04 0.04 82 1012.9
20191113203457 50 52 10.0 14.0 0.00 0.04 0.04 83 1013.1
20191113202957 50 45 11.0 14.0 0.00 0.04 0.04 82 1012.8
20191113202457 50 45 7.0 10.0 0.00 0.04 0.04 81 1012.9
20191113201501 51 45 8.0 9.0 0.00 0.04 0.04 81 1013.1
20191113200957 51 45 9.0 12.0 0.00 0.04 0.04 80 1012.9
20191113200457 51 45 9.0 10.0 0.00 0.04 0.04 80 1012.8
20191113195957 51 44 7.0 9.0 0.00 0.04 0.04 79 1012.9
20191113194957 51 48 4.0 9.0 0.00 0.04 0.04 80 1012.9
20191113194457 51 22 5.0 9.0 0.00 0.04 0.04 80 1012.9
20191113193958 51 34 4.0 9.0 0.00 0.04 0.04 81 1013.0
20191113192958 51 16 5.0 9.0 0.00 0.04 0.04 80 1012.7
20191113192457 51 30 6.0 8.0 0.00 0.04 0.04 81 1012.8
20191113191958 52 35 5.0 9.0 0.00 0.04 0.04 81 1012.8
20191113191457 52 45 7.0 12.0 0.00 0.04 0.04 80 1012.7
20191113190457 52 48 10.0 14.0 0.00 0.04 0.04 80 1012.6
20191113185500 52 25 5.0 6.0 0.00 0.04 0.04 80 1012.5
20191113184957 52 32 3.0 8.0 0.00 0.04 0.04 80 1012.2
20191113184458 53 32 6.0 8.0 0.00 0.04 0.04 80 1012.3
20191113183958 53 49 3.0 9.0 0.00 0.04 0.04 80 1012.3
20191113183458 53 47 5.0 8.0 0.00 0.04 0.04 81 1012.3
20191113182957 52 55 5.0 8.0 0.00 0.04 0.04 81 1012.3
20191113182457 52 54 5.0 8.0 0.00 0.04 0.04 81 1012.5
20191113181458 52 43 3.0 8.0 0.00 0.04 0.04 81 1012.6
20191113180457 53 36 7.0 12.0 0.00 0.04 0.04 80 1012.4
20191113175957 53 42 4.0 6.0 0.00 0.04 0.04 81 1012.4
20191113175457 53 23 7.0 12.0 0.00 0.04 0.04 81 1012.5
20191113174957 52 45 9.0 13.0 0.00 0.04 0.04 81 1012.4
20191113173958 53 28 7.0 15.0 0.00 0.04 0.04 80 1012.1
20191113173457 53 55 10.0 13.0 0.00 0.04 0.04 80 1012.1
20191113172958 53 21 8.0 13.0 0.00 0.04 0.04 80 1012.1
20191113172501 54 42 5.0 8.0 0.00 0.04 0.04 78 1012.1
20191113171957 54 55 2.0 7.0 0.00 0.04 0.04 77 1012.0
20191113170957 55 56 5.0 8.0 0.00 0.04 0.04 76 1011.8
20191113170458 55 153 2.0 5.0 0.00 0.04 0.04 76 1011.7
20191113165957 56 18 3.0 6.0 0.00 0.04 0.04 74 1011.6
20191113165457 56 184 5.0 12.0 0.00 0.04 0.04 74 1011.7
20191113164501 57 128 3.0 8.0 0.00 0.04 0.04 73 1011.7
20191113163957 56 109 6.0 9.0 0.00 0.04 0.04 74 1011.7
20191113163457 56 132 1.0 6.0 0.00 0.04 0.04 72 1011.7